Location: Rayville
(42.4642°N, 73.5384°W)
Time: 12:18:15
(UTC+00:00)

ISS - Pass Details

Date: 22 October 2024
Orbit: 408 x 420 km, 51.6° (Epoch: 02 November)

Event Time Altitude Azimuth Distance (km) Brightness Sun altitude
Exits shadow 10:35:01 10° 294° (WNW) 1,444 -1.7 -8.3°
Maximum altitude 10:37:32 21° 345° (NNW) 975 -2.1 -7.8°
Drops below altitude 10° 10:40:09 10° 38° (NE) 1,473 -0.6 -7.3°
Sets 10:42:34 0° 55° (NE) 2,335 0.8 -6.9°
